[[{"header":{"parameterUnit":"m.s-1","parameterCategory":2,"la1":30.2991,"la2":30.254,"lo1":-89.0895,"lo2":-89.0444,"dy":0.0017,"dx":0.0017,"nx":28,"ny":28,"refTime":"2024-08-16T09:00:00:Z","depth":"0","parameterNumber":2,"parameterNumberName":"U-component_of_CURRENTS"},"data":[0,0,0,0,0,0,0,0,0,0,0,0,0,0,0,0,0,0,0,0,0,0,0,0,0,0,0,0,0,0,0,0,0,0,0,0,0,0,0,0,0,0,0,0,0,0,0,0,0,0,0,0,0,0,0,0,0,0,0.3707,0.3708,0,0.3803,0.3804,0.3805,0.3839,0.3839,0.3839,0.3838,0.3806,0.3806,0.3805,0,0,0,0,0,0,0,0,0,0,0,0,0,0.3636,0.3636,0.3707,0.3708,0.371,0.3803,0.3804,0.3805,0.3839,0.3839,0.3839,0.3838,0.3806,0.3806,0.3805,0,0,0,0,0,0,0,0,0,0,0,0,0,0.3692,0.3637,0.3707,0.3738,0.3742,0.3802,0.3804,0.3805,0.3839,0.3839,0.3838,0.3838,0.3807,0.3806,0.3805,0.3809,0,0,0.3802,0.3802,0,0,0,0,0,0,0,0,0.3689,0.3695,0.3732,0.3736,0.374,0.3809,0.3767,0.38,0.384,0.3802,0.3838,0.3838,0.3796,0.3796,0.3816,0.3807,0.3806,0.3802,0.3802,0.3801,0.3801,0,0,0,0,0,0,0,0.3685,0.3691,0.3745,0.3734,0.3739,0.3775,0.3782,0.3774,0.3798,0.3805,0.3808,0.3819,0.3797,0.3817,0.3815,0.3806,0.3802,0.3801,0.3801,0.3801,0.3864,0.3866,0,0,0,0,0,0,0.367,0.3687,0.3742,0.3748,0.3713,0.3776,0.3784,0.3787,0.3801,0.3804,0.382,0.3821,0.3819,0.3816,0.3814,0.3854,0.3801,0.3801,0.38,0.3861,0.3864,0.3866,0,0,0,0,0,0,0.3668,0.3673,0.3738,0.372,0.3731,0.3778,0.3781,0.3789,0.3816,0.3813,0.3813,0.3838,0.3818,0.3815,0.3834,0.3851,0.38,0.3799,0.3859,0.3862,0.3865,0.3909,0,0,0,0,0,0,0.3665,0.3672,0.3671,0.3719,0.3731,0.378,0.3782,0.3791,0.3823,0.3825,0.3828,0.3825,0.3818,0.3836,0.3833,0.3849,0.3799,0.3856,0.386,0.3864,0.3905,0.3914,0.3921,0,0,0,0,0,0.3662,0.3675,0.367,0.3677,0.3728,0.378,0.3791,0.3822,0.3824,0.3843,0.3857,0.3825,0.386,0.3837,0.3833,0.3849,0.3854,0.3859,0.3864,0.3902,0.3912,0.3921,0,0,0,0,0,0,0.3639,0.3681,0.3677,0.3698,0.3733,0.3786,0.381,0.3827,0.3856,0.3855,0.3848,0.3847,0.3877,0.3862,0.3836,0.3885,0.3853,0.3858,0.3884,0.3893,0.3901,0.3965,0.3798,0,0,0,0,0,0.3631,0.3654,0.3691,0.3706,0.3724,0.3764,0.3789,0.381,0.3842,0.3856,0.3862,0.3874,0.3896,0.3892,0.3909,0.392,0.3993,0.3933,0.3941,0.3948,0.4002,0.4143,0.417,0.3883,0.3882,0.3882,0,0,0.3628,0.3651,0.3664,0.3704,0.3732,0.3778,0.3779,0.3821,0.3867,0.3843,0.3899,0.3902,0.3911,0.3943,0.3952,0.3926,0.4064,0.3954,0.3959,0.4011,0.4152,0.418,0.4205,0.3886,0.3885,0.3885,0,0,0.3645,0.365,0.3679,0.3713,0.3758,0.3789,0.3801,0.3855,0.3884,0.3924,0.3939,0.3972,0.397,0.4011,0.4021,0.4085,0.4112,0.4064,0.4139,0.4274,0.43,0.4324,0.4437,0.4471,0.4054,0.4054,0.4055,0,0.3641,0.3681,0.3696,0.3737,0.3785,0.3796,0.3855,0.3885,0.394,0.3991,0.3943,0.4038,0.4019,0.4114,0.4132,0.4105,0.4184,0.4091,0.4288,0.4312,0.4336,0.4447,0.4483,0.4057,0.4057,0.4057,0.4056,0,0.3681,0.3722,0.3747,0.3805,0.3849,0.3904,0.395,0.4,0.4018,0.4056,0.4145,0.4141,0.4215,0.4188,0.4169,0.4321,0.4325,0.429,0.4264,0.4368,0.4477,0.4514,0.4061,0.406,0.4059,0.4059,0,0,0.367,0.3763,0.3773,0.384,0.3901,0.3962,0.4033,0.4136,0.4233,0.4231,0.4367,0.4366,0.4382,0.4402,0.4385,0.4468,0.4663,0.4447,0.4453,0.4563,0.4973,0.4883,0.4915,0.4665,0.4672,0.4678,0.4977,0,0.3711,0.3828,0.3849,0.3974,0.4058,0.4103,0.419,0.4276,0.4332,0.4457,0.4465,0.4562,0.4455,0.4503,0.4573,0.4655,0.4768,0.4587,0.4856,0.4865,0.4775,0.4957,0.4755,0.4998,0.5013,0.5019,0.5024,0,0.3751,0.3844,0.398,0.4134,0.4172,0.4237,0.4427,0.4501,0.4643,0.4689,0.477,0.4789,0.4908,0.4802,0.501,0.4901,0.4972,0.5008,0.502,0.4961,0.4847,0.4901,0.5065,0.4865,0.5081,0.5077,0.5073,0,0.3817,0.3937,0.407,0.4118,0.4277,0.4362,0.4443,0.4588,0.4672,0.4864,0.4937,0.5068,0.5144,0.5252,0.527,0.519,0.5504,0.5403,0.5401,0.5393,0.5292,0.5263,0.5304,0.5625,0.5625,0.5624,0.5623,0,0.3897,0.4014,0.4115,0.4215,0.4362,0.445,0.4609,0.4719,0.4869,0.4963,0.5063,0.5153,0.5266,0.5398,0.542,0.5526,0.5636,0.5495,0.5498,0.5294,0.5264,0.5138,0.5049,0.5635,0.5632,0.563,0.5628,0,0.4002,0.4061,0.4219,0.4375,0.4409,0.4529,0.465,0.4749,0.4911,0.5047,0.511,0.529,0.5471,0.5568,0.5774,0.5713,0.5668,0.5842,0.5579,0.5544,0.5295,0.5216,0.52,0.5056,0.5919,0.5919,0.5919,0,0.4101,0.4191,0.4312,0.4342,0.4413,0.4545,0.4601,0.4757,0.4824,0.5074,0.5124,0.5385,0.547,0.5753,0.5801,0.593,0.5712,0.5779,0.5582,0.5326,0.5243,0.5024,0.4887,0.547,0.5466,0.5464,0.5461,0,0.4259,0.4266,0.4339,0.4395,0.4443,0.4508,0.4595,0.4648,0.4807,0.4922,0.5063,0.5182,0.5479,0.5519,0.5722,0.5747,0.5473,0.5719,0.555,0.5008,0.4688,0.453,0.521,0.5435,0.5437,0.5439,0.5441,0.5442,0.4303,0.4331,0.4335,0.4382,0.4412,0.4418,0.4417,0.4484,0.4563,0.4671,0.4893,0.5014,0.5203,0.546,0.5448,0.5319,0.5327,0.5144,0.5113,0.4947,0.4667,0.5277,0.5421,0.5423,0.5425,0.5427,0.5429,0,0.4272,0.4257,0.4306,0.428,0.4254,0.432,0.4339,0.4286,0.427,0.4477,0.4583,0.4739,0.4806,0.4917,0.4911,0.4726,0.4508,0.4586,0.4231,0.4159,0.4809,0.4639,0.45,0.45,0.45,0.4501,0.4501,0.4501,0.4222,0.4182,0.4187,0.4092,0.4082,0.398,0.3957,0.391,0.3996,0.4012,0.409,0.424,0.4425,0.4485,0.4307,0.4214,0.3871,0.373,0.3714,0.4141,0.4188,0.4232,0.4048,0.3788,0.3787,0.2879,0.2872,0.2867]},{"header":{"parameterUnit":"m.s-1","parameterCategory":2,"la1":30.2991,"la2":30.254,"lo1":-89.0895,"lo2":-89.0444,"dy":0.0017,"dx":0.0017,"nx":28,"ny":28,"refTime":"2024-08-16T09:00:00:Z","depth":"0","parameterNumber":3,"parameterNumberName":"V-component_of_CURRENTS"},"data":[0,0,0,0,0,0,0,0,0,0,0,0,0,0,0,0,0,0,0,0,0,0,0,0,0,0,0,0,0,0,0,0,0,0,0,0,0,0,0,0,0,0,0,0,0,0,0,0,0,0,0,0,0,0,0,0,0,0,0.0005,0.0004,0,-0.01,-0.0102,-0.0103,-0.0178,-0.0178,-0.0178,-0.0179,-0.0308,-0.0311,-0.0314,0,0,0,0,0,0,0,0,0,0,0,0,0,0.0049,0.0049,0.0005,0.0004,0.0003,-0.01,-0.0102,-0.0104,-0.0178,-0.0178,-0.0179,-0.0179,-0.0307,-0.0311,-0.0314,0,0,0,0,0,0,0,0,0,0,0,0,0,-0.0008,0.0049,0.0005,-0.0044,-0.0049,-0.01,-0.0102,-0.0104,-0.0178,-0.0178,-0.0179,-0.0179,-0.0305,-0.031,-0.0315,-0.0337,0,0,-0.033,-0.0332,0,0,0,0,0,0,0,0,-0.0004,-0.001,-0.0036,-0.004,-0.0046,-0.0123,-0.0134,-0.0182,-0.0178,-0.0133,-0.0179,-0.0179,-0.0245,-0.0255,-0.0279,-0.0343,-0.0349,-0.033,-0.0333,-0.0335,-0.0336,0,0,0,0,0,0,0,-0.0,-0.0006,-0.0041,-0.0036,-0.0043,-0.0092,-0.01,-0.0144,-0.0189,-0.0137,-0.0142,-0.0147,-0.0249,-0.0275,-0.0283,-0.0351,-0.033,-0.0334,-0.0337,-0.0339,-0.043,-0.0429,0,0,0,0,0,0,0.0026,-0.0002,-0.0037,-0.0044,-0.0021,-0.0091,-0.0101,-0.0101,-0.0189,-0.0201,-0.0147,-0.015,-0.0266,-0.0277,-0.0288,-0.0284,-0.0335,-0.034,-0.0342,-0.043,-0.0429,-0.0429,0,0,0,0,0,0,0.0027,0.0024,-0.0033,-0.0023,-0.0033,-0.0091,-0.0091,-0.0103,-0.0122,-0.0195,-0.0209,-0.0152,-0.0267,-0.0281,-0.0322,-0.029,-0.0342,-0.0346,-0.0431,-0.043,-0.0429,-0.0298,0,0,0,0,0,0,0.0029,0.0025,0.0027,-0.002,-0.0032,-0.0048,-0.0091,-0.0105,-0.0123,-0.0129,-0.0204,-0.0217,-0.0268,-0.0315,-0.0327,-0.0298,-0.035,-0.0431,-0.043,-0.0429,-0.0303,-0.0293,-0.0284,0,0,0,0,0,0.0031,0.0045,0.0028,0.0023,-0.0025,-0.0047,-0.0057,-0.0103,-0.0123,-0.0124,-0.0179,-0.0214,-0.0317,-0.0318,-0.0333,-0.0304,-0.0432,-0.0431,-0.043,-0.0307,-0.0295,-0.0285,0,0,0,0,0,0,0.0062,0.0038,0.0018,0.0022,-0.0004,-0.0057,-0.0063,-0.0092,-0.0138,-0.0141,-0.0215,-0.0231,-0.0254,-0.0303,-0.0302,-0.033,-0.0378,-0.0379,-0.028,-0.0269,-0.026,-0.0181,-0.0354,0,0,0,0,0,0.0073,0.0079,0.0043,0.0047,0.0039,-0.001,-0.0027,-0.0051,-0.0094,-0.0114,-0.0167,-0.0221,-0.0263,-0.0283,-0.0332,-0.0349,-0.034,-0.034,-0.0331,-0.0322,-0.0269,-0.0244,-0.0225,-0.0425,-0.0425,-0.0425,0,0,0.008,0.0073,0.007,0.0054,0.0028,0.0034,-0.0021,-0.0029,-0.0022,-0.012,-0.0133,-0.0192,-0.0262,-0.0281,-0.0294,-0.0315,-0.0263,-0.0321,-0.0313,-0.0263,-0.024,-0.022,-0.0202,-0.0425,-0.0425,-0.0425,0,0,0.0121,0.01,0.0124,0.0114,0.0098,0.007,0.0076,0.0035,0.0017,-0.001,-0.0068,-0.0094,-0.0181,-0.02,-0.0228,-0.0194,-0.0217,-0.0227,-0.011,-0.0086,-0.0068,-0.0052,-0.0013,0.0006,-0.0219,-0.0218,-0.0218,0,0.0132,0.0171,0.0126,0.0154,0.0167,0.0097,0.0139,0.0102,0.0053,0.0075,0.0003,-0.0051,-0.0129,-0.0099,-0.0105,-0.0164,-0.0154,-0.0145,-0.0068,-0.0052,-0.0037,-0.0002,0.0017,-0.0212,-0.0213,-0.0213,-0.0214,0,0.0201,0.0229,0.0246,0.0264,0.0261,0.0287,0.0248,0.0249,0.0211,0.0191,0.0204,0.0102,0.0095,0.0041,-0.0034,0.0037,0.001,-0.0059,-0.0082,-0.0008,0.0023,0.0041,-0.0203,-0.0205,-0.0207,-0.0209,0,0,0.0257,0.029,0.0303,0.0356,0.0337,0.0362,0.0374,0.0405,0.0478,0.0386,0.0482,0.0363,0.0339,0.0308,0.0225,0.022,0.0293,0.0129,0.0127,0.0196,0.0369,0.0309,0.0321,0.0235,0.0238,0.0241,0.0352,0,0.0341,0.0443,0.0425,0.0525,0.0585,0.0547,0.0588,0.0601,0.0592,0.0655,0.0573,0.0607,0.043,0.0452,0.0415,0.0336,0.0345,0.0272,0.0265,0.0266,0.0226,0.0342,0.0288,0.0379,0.0369,0.0372,0.0374,0,0.044,0.0508,0.0627,0.0728,0.0752,0.0793,0.091,0.0934,0.0975,0.0978,0.0986,0.0925,0.092,0.0749,0.0683,0.0644,0.0535,0.0448,0.0449,0.0373,0.024,0.0299,0.0411,0.0107,0.0401,0.0399,0.0397,0,0.0572,0.0663,0.0783,0.0809,0.0886,0.0959,0.1001,0.1058,0.1131,0.1215,0.1298,0.1248,0.1281,0.1123,0.0902,0.0818,0.0831,0.0692,0.0549,0.0543,0.0492,0.0475,0.0339,0.068,0.068,0.068,0.0679,0,0.0699,0.0805,0.0866,0.0943,0.1111,0.1116,0.1293,0.1334,0.1432,0.157,0.1493,0.1614,0.1377,0.1322,0.1062,0.0886,0.0963,0.0632,0.0588,0.0531,0.0517,0.0241,0.0103,0.0684,0.0683,0.0682,0.0681,0,0.0837,0.0868,0.1024,0.1138,0.118,0.131,0.1445,0.1563,0.1662,0.185,0.1896,0.1938,0.1902,0.1642,0.1446,0.1148,0.0793,0.0852,0.0808,0.0755,0.029,0.0164,0.009,-0.0009,0.0737,0.0737,0.0736,0,0.0922,0.1014,0.1166,0.1242,0.1301,0.1462,0.1559,0.1663,0.1789,0.2047,0.2156,0.2237,0.2288,0.2,0.1548,0.1172,0.0868,0.0825,0.063,0.0317,0.0143,0.0048,-0.0036,0.0619,0.0617,0.0616,0.0615,0,0.1084,0.1131,0.1238,0.1384,0.1502,0.1652,0.1809,0.1946,0.2103,0.23,0.2561,0.2653,0.2452,0.2104,0.1597,0.1268,0.062,0.0788,0.0484,0.0087,-0.0036,-0.0171,0.0494,0.0605,0.0606,0.0607,0.0608,0.0608,0.119,0.1275,0.1377,0.1519,0.1648,0.182,0.1969,0.2152,0.2403,0.2719,0.2812,0.3019,0.2476,0.1823,0.1398,0.053,0.0597,0.0188,0.0084,0.0033,-0.0132,0.0522,0.0547,0.0547,0.0548,0.0549,0.0549,0,0.1277,0.1347,0.1484,0.1646,0.1788,0.1848,0.2104,0.2273,0.2577,0.2891,0.3127,0.2958,0.2286,0.1581,0.0449,-0.0123,-0.0316,-0.0437,-0.0613,-0.065,-0.0057,-0.0144,-0.0293,-0.0292,-0.0292,-0.0292,-0.0291,-0.0291,0.1322,0.1432,0.1488,0.1717,0.1836,0.2047,0.2203,0.2487,0.2756,0.3108,0.3248,0.3318,0.2657,0.0747,-0.0568,-0.085,-0.1186,-0.1241,-0.1374,-0.1059,-0.1011,-0.0966,-0.1086,-0.1429,-0.1431,-0.1951,-0.1956,-0.1961]}],[{"header":{"parameterUnit":"m.s-1","parameterCategory":2,"la1":30.2991,"la2":30.254,"lo1":-89.0895,"lo2":-89.0444,"dy":0.0017,"dx":0.0017,"nx":28,"ny":28,"refTime":"2024-08-16T09:00:00:Z","depth":"2","parameterNumber":2,"parameterNumberName":"U-component_of_CURRENTS"},"data":[0,0,0,0,0,0,0,0,0,0,0,0,0,0,0,0,0,0,0,0,0,0,0,0,0,0,0,0,0,0,0,0,0,0,0,0,0,0,0,0,0,0,0,0,0,0,0,0,0,0,0,0,0,0,0,0,0,0,0.2826,0.2827,0,0.2869,0.2869,0.287,0.2943,0.2944,0.2946,0.2947,0.2996,0.2996,0.2996,0,0,0,0,0,0,0,0,0,0,0,0,0,0.2779,0.278,0.2826,0.2827,0.2827,0.2869,0.2869,0.287,0.2943,0.2944,0.2946,0.2948,0.2996,0.2996,0.2996,0,0,0,0,0,0,0,0,0,0,0,0,0,0.2808,0.278,0.2826,0.2868,0.2873,0.2869,0.2869,0.287,0.2942,0.2945,0.2947,0.2948,0.2996,0.2996,0.2996,0.2956,0,0,0.2997,0.2997,0,0,0,0,0,0,0,0,0.2807,0.281,0.2862,0.2865,0.287,0.2903,0.2871,0.2899,0.2942,0.2916,0.2947,0.2949,0.2964,0.2967,0.2971,0.2959,0.2961,0.2997,0.2997,0.2997,0.2997,0,0,0,0,0,0,0,0.2805,0.2809,0.2843,0.2862,0.2867,0.2875,0.2882,0.2876,0.2928,0.2919,0.2924,0.2928,0.2967,0.297,0.2972,0.2961,0.2997,0.2997,0.2997,0.2997,0.3074,0.3076,0,0,0,0,0,0,0.2798,0.2807,0.2842,0.2845,0.2843,0.2875,0.2882,0.289,0.2929,0.2936,0.2926,0.2931,0.2969,0.2972,0.2974,0.3059,0.2997,0.2997,0.2997,0.3072,0.3074,0.3076,0,0,0,0,0,0,0.2797,0.2801,0.284,0.2826,0.2832,0.2874,0.2882,0.289,0.2923,0.2934,0.2942,0.2955,0.2971,0.2974,0.3007,0.3056,0.2997,0.2997,0.3069,0.3072,0.3075,0.3144,0,0,0,0,0,0,0.2796,0.28,0.281,0.2826,0.2832,0.2872,0.288,0.2889,0.2921,0.2929,0.296,0.2965,0.2973,0.3007,0.3007,0.3055,0.2997,0.3067,0.3071,0.3074,0.3139,0.3149,0.3157,0,0,0,0,0,0.2794,0.2806,0.281,0.2815,0.2843,0.2873,0.2879,0.2914,0.292,0.2948,0.2968,0.2966,0.3032,0.3008,0.3008,0.3057,0.3065,0.307,0.3074,0.3135,0.3147,0.3157,0,0,0,0,0,0,0.2781,0.2815,0.282,0.2839,0.2867,0.2887,0.2909,0.2922,0.2956,0.2968,0.2974,0.2981,0.3043,0.3029,0.3002,0.3093,0.3054,0.3059,0.3101,0.3112,0.3121,0.3185,0.2997,0,0,0,0,0,0.278,0.2812,0.2831,0.285,0.2862,0.2883,0.29,0.2926,0.2952,0.297,0.2996,0.3021,0.3053,0.3065,0.3095,0.3116,0.3151,0.3154,0.3164,0.3171,0.3225,0.3308,0.333,0.3091,0.3091,0.3091,0,0,0.2785,0.2802,0.2823,0.2852,0.2871,0.2904,0.2901,0.294,0.2979,0.2966,0.3033,0.3058,0.3069,0.3124,0.3148,0.3119,0.3252,0.3177,0.3183,0.3234,0.3315,0.3339,0.3359,0.3094,0.3093,0.3093,0,0,0.2805,0.2819,0.2852,0.2881,0.2918,0.2932,0.2947,0.2987,0.3021,0.3063,0.3087,0.315,0.3164,0.3215,0.3227,0.3297,0.3307,0.3296,0.338,0.3458,0.348,0.3499,0.3549,0.3572,0.3287,0.3287,0.3287,0,0.2803,0.2841,0.2866,0.2901,0.2939,0.2947,0.2996,0.3016,0.307,0.3124,0.3101,0.3211,0.322,0.331,0.3352,0.3324,0.3359,0.3331,0.3473,0.3492,0.3511,0.3558,0.3583,0.3291,0.329,0.329,0.329,0,0.2852,0.2882,0.2903,0.2956,0.3005,0.3043,0.3083,0.313,0.3157,0.3205,0.3313,0.3328,0.3406,0.341,0.3402,0.3542,0.3521,0.3482,0.3446,0.3539,0.3582,0.3606,0.3296,0.3295,0.3294,0.3293,0,0,0.2852,0.292,0.2933,0.2971,0.3042,0.3087,0.3155,0.3242,0.3306,0.3362,0.347,0.3536,0.3576,0.3598,0.3597,0.3666,0.381,0.3641,0.3643,0.3695,0.398,0.3838,0.385,0.3794,0.3799,0.3804,0.3948,0,0.2878,0.295,0.2994,0.308,0.3124,0.3179,0.3252,0.3347,0.34,0.3502,0.3563,0.3671,0.3628,0.3685,0.3746,0.3823,0.3884,0.3775,0.3881,0.3885,0.3751,0.3877,0.3569,0.3662,0.3972,0.3976,0.3979,0,0.2913,0.2964,0.3045,0.3157,0.3187,0.3241,0.3381,0.3455,0.3593,0.3633,0.3742,0.3817,0.397,0.3891,0.4062,0.3996,0.4015,0.4039,0.4044,0.392,0.3791,0.3625,0.3695,0.4019,0.4016,0.4013,0.401,0,0.2904,0.3005,0.3071,0.3108,0.3228,0.329,0.3373,0.3514,0.3593,0.3753,0.3817,0.399,0.4047,0.4165,0.4226,0.418,0.4379,0.4303,0.4183,0.4171,0.3939,0.3898,0.4423,0.4423,0.4423,0.4423,0.4422,0,0.2904,0.2958,0.3066,0.3091,0.319,0.3319,0.3434,0.3501,0.3663,0.3759,0.3896,0.3972,0.4121,0.4244,0.4309,0.433,0.4442,0.4257,0.4224,0.3947,0.3907,0.4236,0.4213,0.4428,0.4427,0.4426,0.4425,0,0.2847,0.2921,0.2968,0.31,0.316,0.3229,0.3419,0.3493,0.3646,0.3762,0.3843,0.4004,0.4145,0.4266,0.443,0.4374,0.447,0.4426,0.408,0.4005,0.4189,0.4167,0.4355,0.4352,0.4349,0.4347,0.4345,0,0.278,0.2825,0.2926,0.2961,0.3003,0.3147,0.3231,0.3428,0.3494,0.376,0.3785,0.4001,0.4058,0.4233,0.4246,0.4336,0.4404,0.4052,0.3907,0.4246,0.4196,0.4178,0.416,0.3621,0.3614,0.3608,0.3602,0,0.2707,0.2753,0.2792,0.2828,0.2895,0.2988,0.3123,0.3183,0.3413,0.3536,0.3696,0.3831,0.3934,0.3876,0.394,0.3949,0.4034,0.3921,0.4417,0.3666,0.356,0.3507,0.3514,0.3546,0.3552,0.3556,0.3559,0.3561,0.2636,0.2606,0.2673,0.2687,0.278,0.283,0.2841,0.2972,0.3103,0.3231,0.344,0.3496,0.3568,0.3509,0.3469,0.3447,0.3693,0.3557,0.3575,0.36,0.3469,0.3362,0.3286,0.329,0.3294,0.3297,0.3299,0,0.2567,0.2578,0.256,0.2568,0.2584,0.2708,0.2774,0.272,0.2784,0.2948,0.3045,0.2866,0.2865,0.2978,0.2858,0.2876,0.2832,0.2773,0.2699,0.2758,0.281,0.2636,0.2235,0.2231,0.2227,0.2224,0,0,0.2561,0.2499,0.2441,0.24,0.2446,0.241,0.2417,0.2352,0.2389,0.2375,0.2444,0.265,0.2863,0.2482,0.2462,0.2331,0.2508,0.2241,0.3102,0.3072,0.3118,0.3282,0.3084,0,0,0,0,0]},{"header":{"parameterUnit":"m.s-1","parameterCategory":2,"la1":30.2991,"la2":30.254,"lo1":-89.0895,"lo2":-89.0444,"dy":0.0017,"dx":0.0017,"nx":28,"ny":28,"refTime":"2024-08-16T09:00:00:Z","depth":"2","parameterNumber":3,"parameterNumberName":"V-component_of_CURRENTS"},"data":[0,0,0,0,0,0,0,0,0,0,0,0,0,0,0,0,0,0,0,0,0,0,0,0,0,0,0,0,0,0,0,0,0,0,0,0,0,0,0,0,0,0,0,0,0,0,0,0,0,0,0,0,0,0,0,0,0,0,0.0029,0.0029,0,-0.0032,-0.0033,-0.0034,-0.0101,-0.0101,-0.0102,-0.0103,-0.0236,-0.0239,-0.0242,0,0,0,0,0,0,0,0,0,0,0,0,0,0.0037,0.0038,0.0029,0.0029,0.0028,-0.0032,-0.0033,-0.0034,-0.01,-0.0101,-0.0102,-0.0103,-0.0235,-0.0238,-0.0242,0,0,0,0,0,0,0,0,0,0,0,0,0,0.0008,0.0038,0.0029,-0.001,-0.0014,-0.0032,-0.0033,-0.0034,-0.01,-0.0101,-0.0102,-0.0103,-0.0234,-0.0238,-0.0242,-0.0249,0,0,-0.0256,-0.0258,0,0,0,0,0,0,0,0,0.001,0.0007,-0.0004,-0.0007,-0.0012,-0.0057,-0.0079,-0.0109,-0.01,-0.0071,-0.0103,-0.0104,-0.018,-0.0189,-0.0201,-0.0255,-0.0261,-0.0256,-0.0259,-0.0261,-0.0262,0,0,0,0,0,0,0,0.0012,0.0009,0.0002,-0.0004,-0.0009,-0.0042,-0.0047,-0.0085,-0.0122,-0.0073,-0.0077,-0.0079,-0.0183,-0.0197,-0.0205,-0.0263,-0.0256,-0.026,-0.0262,-0.0264,-0.0355,-0.0355,0,0,0,0,0,0,0.003,0.0012,0.0004,0.0,0.0,-0.0041,-0.0047,-0.0044,-0.0121,-0.0132,-0.0078,-0.0082,-0.0189,-0.02,-0.021,-0.0227,-0.0261,-0.0265,-0.0267,-0.0356,-0.0355,-0.0355,0,0,0,0,0,0,0.003,0.003,0.0006,0.0007,0.0002,-0.0039,-0.0036,-0.0044,-0.006,-0.0123,-0.0137,-0.0084,-0.019,-0.0204,-0.0245,-0.0233,-0.0267,-0.0271,-0.0356,-0.0356,-0.0355,-0.0258,0,0,0,0,0,0,0.0031,0.003,0.0035,0.0008,0.0002,0.0,-0.0035,-0.0045,-0.0057,-0.0063,-0.0133,-0.0146,-0.0192,-0.0238,-0.0249,-0.0239,-0.0274,-0.0356,-0.0356,-0.0355,-0.0261,-0.0254,-0.0248,0,0,0,0,0,0.0031,0.0049,0.0035,0.0034,0.0011,0.0001,-0.0005,-0.004,-0.0056,-0.0059,-0.0107,-0.0144,-0.0244,-0.0241,-0.0255,-0.0245,-0.0356,-0.0356,-0.0355,-0.0264,-0.0256,-0.0249,0,0,0,0,0,0,0.0056,0.0044,0.0028,0.004,0.0022,-0.0009,-0.001,-0.0032,-0.007,-0.0079,-0.0141,-0.0158,-0.0191,-0.0232,-0.0227,-0.0272,-0.0306,-0.0308,-0.0232,-0.0225,-0.0219,-0.0186,-0.0278,0,0,0,0,0,0.0065,0.0073,0.0052,0.0061,0.0057,0.0024,0.0015,-0.0007,-0.004,-0.0058,-0.0105,-0.0157,-0.0198,-0.0221,-0.0268,-0.0288,-0.032,-0.0292,-0.0286,-0.028,-0.0263,-0.0291,-0.0285,-0.0354,-0.0354,-0.0354,0,0,0.0071,0.0071,0.007,0.0066,0.0049,0.0051,0.0016,0.0009,0.0007,-0.0067,-0.0088,-0.0138,-0.02,-0.0227,-0.0245,-0.0259,-0.0282,-0.0279,-0.0273,-0.026,-0.029,-0.0283,-0.0277,-0.0353,-0.0353,-0.0354,0,0,0.0101,0.0095,0.011,0.0105,0.0094,0.0074,0.0077,0.0047,0.003,0.0004,-0.0048,-0.0083,-0.015,-0.0184,-0.0211,-0.0195,-0.0248,-0.0216,-0.0152,-0.0179,-0.0173,-0.0168,-0.0212,-0.0212,-0.0209,-0.0209,-0.0209,0,0.011,0.0132,0.0112,0.013,0.0134,0.0091,0.0108,0.0086,0.0044,0.0044,0.0006,-0.007,-0.0126,-0.0143,-0.0141,-0.0177,-0.0208,-0.0173,-0.0168,-0.0164,-0.016,-0.0207,-0.0208,-0.0204,-0.0204,-0.0205,-0.0205,0,0.0151,0.0167,0.018,0.0188,0.0184,0.0195,0.0169,0.0159,0.0131,0.0112,0.0087,0.0012,-0.0026,-0.0054,-0.0095,-0.0094,-0.013,-0.0157,-0.018,-0.0147,-0.0199,-0.0202,-0.0197,-0.0199,-0.02,-0.0201,0,0,0.0185,0.0204,0.0211,0.0225,0.022,0.0223,0.0228,0.0228,0.0243,0.0191,0.0207,0.0132,0.0103,0.007,0.0013,-0.0013,-0.0026,-0.0065,-0.0069,-0.0094,-0.0096,-0.0139,-0.0147,-0.0049,-0.0048,-0.0048,-0.0146,0,0.0226,0.0278,0.0272,0.0307,0.0331,0.0305,0.0315,0.0308,0.029,0.0291,0.0234,0.0218,0.0147,0.0133,0.0097,0.0018,-0.0027,0.0002,-0.0137,-0.0141,-0.0171,-0.0148,-0.0118,-0.0203,-0.0149,-0.0149,-0.015,0,0.0272,0.0306,0.0355,0.0381,0.0388,0.0397,0.0418,0.0421,0.0417,0.0397,0.038,0.0344,0.0313,0.0234,0.0124,0.0149,0.0034,-0.0044,-0.005,-0.012,-0.0187,-0.0227,-0.021,-0.0155,-0.0154,-0.0154,-0.0154,0,0.0313,0.0362,0.0405,0.0416,0.0436,0.0452,0.0458,0.0464,0.0483,0.0478,0.0482,0.0445,0.0393,0.0306,0.0167,0.0148,0.0031,-0.0021,-0.0179,-0.0185,-0.0201,-0.0208,-0.0125,-0.0125,-0.0124,-0.0124,-0.0124,0,0.0361,0.0388,0.0431,0.0451,0.0505,0.0502,0.0554,0.0541,0.0561,0.062,0.0542,0.0565,0.0405,0.0334,0.0213,0.003,0.0065,-0.016,-0.0204,-0.017,-0.0173,-0.0163,-0.0166,-0.0128,-0.0127,-0.0126,-0.0126,0,0.0366,0.0403,0.0448,0.0497,0.0519,0.055,0.0605,0.0652,0.0638,0.071,0.0719,0.0636,0.0523,0.0361,0.0185,0.0053,-0.0081,-0.0175,-0.013,-0.0167,-0.0302,-0.0299,-0.0356,-0.0358,-0.036,-0.0362,-0.0363,0,0.0364,0.0385,0.0472,0.0529,0.0548,0.0611,0.0668,0.0682,0.0754,0.0791,0.0842,0.0721,0.0699,0.0396,0.0126,-0.0115,-0.0156,-0.0269,-0.0312,-0.0283,-0.0321,-0.0316,-0.0311,-0.0306,-0.0307,-0.0307,-0.0308,0,0.0326,0.0356,0.0423,0.0559,0.0635,0.0728,0.0822,0.0897,0.0962,0.1028,0.1123,0.1116,0.0747,0.0496,0.0079,-0.0081,-0.0211,-0.0294,-0.0254,-0.025,-0.0243,-0.0278,-0.0273,-0.0313,-0.0312,-0.0312,-0.0311,-0.0311,0.03,0.0361,0.0475,0.0611,0.07,0.0856,0.0981,0.1113,0.1263,0.1402,0.1353,0.1326,0.0937,0.0401,0.0074,-0.031,-0.0318,-0.041,-0.0405,-0.04,-0.0374,-0.0371,-0.0461,-0.0461,-0.0461,-0.0462,-0.0462,0,0.0299,0.0395,0.052,0.0717,0.0845,0.0874,0.1095,0.1252,0.1485,0.1569,0.1637,0.1303,0.0954,0.0513,-0.0058,-0.0388,-0.0404,-0.049,-0.0422,-0.0415,-0.0409,-0.0382,-0.0472,-0.0473,-0.0473,-0.0474,0,0,0.0307,0.0453,0.0566,0.0812,0.0935,0.1141,0.1289,0.1508,0.164,0.1753,0.1733,0.1599,0.1088,0.068,0.0189,-0.0125,-0.0183,-0.0194,-0.0151,-0.0007,0.0004,-0.0336,-0.0283,0,0,0,0,0]}],[{"header":{"parameterUnit":"m.s-1","parameterCategory":2,"la1":30.2991,"la2":30.254,"lo1":-89.0895,"lo2":-89.0444,"dy":0.0017,"dx":0.0017,"nx":28,"ny":28,"refTime":"2024-08-16T09:00:00:Z","depth":"4","parameterNumber":2,"parameterNumberName":"U-component_of_CURRENTS"},"data":[0,0,0,0,0,0,0,0,0,0,0,0,0,0,0,0,0,0,0,0,0,0,0,0,0,0,0,0,0,0,0,0,0,0,0,0,0,0,0,0,0,0,0,0,0,0,0,0,0,0,0,0,0,0,0,0,0,0,0.1504,0.1505,0,0.1557,0.1557,0.1557,0.1598,0.1598,0.1599,0.16,0.1694,0.1696,0.1698,0,0,0,0,0,0,0,0,0,0,0,0,0,0.1423,0.1424,0.1504,0.1505,0.1506,0.1557,0.1557,0.1557,0.1598,0.1598,0.1599,0.16,0.1694,0.1696,0.1698,0,0,0,0,0,0,0,0,0,0,0,0,0,0.1462,0.1424,0.1504,0.1535,0.1538,0.1556,0.1557,0.1557,0.1597,0.1599,0.16,0.1601,0.1693,0.1696,0.1698,0.1695,0,0,0.1707,0.1708,0,0,0,0,0,0,0,0,0.146,0.1464,0.1529,0.1533,0.1537,0.1575,0.1563,0.1607,0.1597,0.1571,0.16,0.1601,0.166,0.1665,0.1667,0.1699,0.1703,0.1707,0.1709,0.171,0.1711,0,0,0,0,0,0,0,0.1457,0.1462,0.1521,0.153,0.1535,0.1541,0.1547,0.1571,0.1607,0.1574,0.1578,0.1588,0.1662,0.1664,0.167,0.1705,0.1707,0.171,0.1711,0.1712,0.1871,0.1873,0,0,0,0,0,0,0.1457,0.146,0.152,0.1523,0.1504,0.1542,0.1549,0.1559,0.1606,0.1615,0.1588,0.159,0.1659,0.1667,0.1674,0.1774,0.171,0.1713,0.1714,0.1868,0.1871,0.1874,0,0,0,0,0,0,0.1455,0.1462,0.1518,0.1495,0.1504,0.1542,0.1553,0.1559,0.1599,0.1617,0.1626,0.1625,0.166,0.167,0.1728,0.1774,0.1714,0.1717,0.1865,0.1869,0.1873,0.1909,0,0,0,0,0,0,0.1452,0.1461,0.1481,0.1495,0.1505,0.1553,0.1553,0.156,0.1603,0.1608,0.1652,0.1659,0.1662,0.1724,0.1731,0.1777,0.1719,0.1862,0.1867,0.1872,0.1905,0.1914,0.1921,0,0,0,0,0,0.1449,0.1467,0.1482,0.149,0.1527,0.1554,0.156,0.1588,0.1604,0.1626,0.1659,0.166,0.176,0.1727,0.1735,0.1783,0.186,0.1866,0.1871,0.1901,0.1912,0.1921,0,0,0,0,0,0,0.144,0.1473,0.149,0.1517,0.1548,0.1563,0.1591,0.1608,0.1649,0.1669,0.168,0.169,0.1765,0.1771,0.1735,0.1847,0.1815,0.1822,0.1835,0.1846,0.1854,0.1886,0.1721,0,0,0,0,0,0.1448,0.1476,0.1503,0.1531,0.155,0.1578,0.1599,0.1621,0.1652,0.1673,0.1702,0.1744,0.1787,0.1814,0.185,0.19,0.1922,0.1943,0.1951,0.1958,0.1993,0.2066,0.2084,0.1893,0.1893,0.1893,0,0,0.145,0.1476,0.149,0.1532,0.1559,0.1588,0.1593,0.164,0.1672,0.1677,0.1742,0.1778,0.181,0.1871,0.1906,0.1885,0.2017,0.1965,0.197,0.2002,0.2074,0.2092,0.2108,0.1897,0.1896,0.1895,0,0,0.1462,0.1496,0.1523,0.1552,0.1606,0.1622,0.1644,0.1685,0.1718,0.1774,0.1798,0.1865,0.1914,0.1953,0.1975,0.2055,0.2062,0.2073,0.2136,0.2205,0.2221,0.2236,0.2251,0.2267,0.2071,0.2071,0.2071,0,0.1461,0.1502,0.1535,0.157,0.1599,0.1641,0.1673,0.1708,0.1766,0.1813,0.1807,0.1936,0.1955,0.2048,0.2079,0.2075,0.2103,0.2085,0.2215,0.223,0.2244,0.2257,0.2274,0.2074,0.2073,0.2073,0.2073,0,0.1498,0.1531,0.1552,0.1608,0.1643,0.1682,0.173,0.1783,0.1828,0.1875,0.1991,0.2025,0.2114,0.2123,0.2124,0.2247,0.2227,0.2216,0.2183,0.2266,0.2273,0.229,0.2077,0.2076,0.2076,0.2075,0,0,0.1472,0.1557,0.1568,0.1591,0.1669,0.1691,0.1767,0.1847,0.1909,0.1991,0.2084,0.2172,0.2232,0.2265,0.2286,0.2341,0.2439,0.2332,0.2335,0.2336,0.2573,0.2403,0.2404,0.2457,0.2461,0.2464,0.2523,0,0.1487,0.1547,0.1596,0.1645,0.1669,0.1738,0.1794,0.1883,0.1961,0.2061,0.2159,0.2258,0.2273,0.2327,0.2397,0.2444,0.2495,0.2424,0.2505,0.2507,0.2337,0.2423,0.2477,0.2535,0.2539,0.2542,0.2544,0,0.1499,0.1538,0.1591,0.1654,0.1675,0.1723,0.1833,0.1891,0.2049,0.2127,0.2276,0.2353,0.2499,0.247,0.2625,0.2586,0.2605,0.2614,0.2616,0.2468,0.2371,0.2448,0.2575,0.2572,0.257,0.2568,0.2566,0,0.1436,0.1523,0.1565,0.159,0.1676,0.1732,0.1794,0.1931,0.1996,0.2198,0.2273,0.2464,0.2559,0.265,0.2715,0.2689,0.2839,0.279,0.2648,0.2633,0.2749,0.2733,0.2893,0.2893,0.2893,0.2893,0.2893,0,0.1396,0.1421,0.155,0.1554,0.1616,0.1707,0.1791,0.1887,0.2046,0.2139,0.2318,0.2414,0.2617,0.2722,0.276,0.2767,0.2889,0.2688,0.2658,0.2756,0.2741,0.2757,0.2741,0.2895,0.2894,0.2894,0.2894,0,0.1278,0.1369,0.1402,0.1523,0.1572,0.1614,0.1761,0.183,0.1991,0.2119,0.2196,0.2425,0.257,0.2703,0.2844,0.2793,0.2822,0.2784,0.2876,0.2845,0.255,0.2535,0.2627,0.2622,0.2618,0.2614,0.2611,0,0.1207,0.1221,0.1349,0.1391,0.1448,0.1546,0.1616,0.1791,0.1875,0.2096,0.215,0.2355,0.2491,0.2555,0.2707,0.2774,0.2742,0.2728,0.2653,0.2571,0.2534,0.2525,0.2516,0.2605,0.2603,0.2602,0.2601,0,0.1056,0.1126,0.117,0.1263,0.135,0.1417,0.1543,0.1587,0.1794,0.195,0.2076,0.2178,0.2323,0.2464,0.2542,0.2578,0.2731,0.2683,0.269,0.262,0.2545,0.2509,0.2506,0.2586,0.2589,0.259,0.2591,0,0.095,0.0963,0.1057,0.1127,0.1222,0.1275,0.1353,0.1479,0.1579,0.1841,0.1884,0.2096,0.23,0.236,0.2431,0.2468,0.2425,0.2344,0.2368,0.2386,0.2286,0.2154,0.2075,0,0,0,0,0,0.0851,0.087,0.092,0.0997,0.1082,0.1143,0.1301,0.1401,0.1606,0.1646,0.1763,0.1894,0.2026,0.2146,0.2139,0.2313,0.2423,0.2292,0.2337,0.2504,0.2521,0.2429,0,0,0,0,0,0,0.0785,0.083,0.0875,0.0877,0.0905,0.0992,0.1088,0.1233,0.1278,0.1496,0.1591,0.1755,0.1925,0.2002,0.209,0.2125,0.2112,0.2431,0.2426,0.2494,0.251,0.2524,0.2435,0,0,0,0,0]},{"header":{"parameterUnit":"m.s-1","parameterCategory":2,"la1":30.2991,"la2":30.254,"lo1":-89.0895,"lo2":-89.0444,"dy":0.0017,"dx":0.0017,"nx":28,"ny":28,"refTime":"2024-08-16T09:00:00:Z","depth":"4","parameterNumber":3,"parameterNumberName":"V-component_of_CURRENTS"},"data":[0,0,0,0,0,0,0,0,0,0,0,0,0,0,0,0,0,0,0,0,0,0,0,0,0,0,0,0,0,0,0,0,0,0,0,0,0,0,0,0,0,0,0,0,0,0,0,0,0,0,0,0,0,0,0,0,0,0,0.0132,0.0132,0,0.0105,0.0105,0.0105,0.0091,0.0091,0.0091,0.0091,0.0007,0.0005,0.0003,0,0,0,0,0,0,0,0,0,0,0,0,0,0.0131,0.0131,0.0132,0.0131,0.0131,0.0105,0.0105,0.0104,0.0091,0.0091,0.0091,0.0091,0.0008,0.0005,0.0003,0,0,0,0,0,0,0,0,0,0,0,0,0,0.012,0.0131,0.0132,0.0121,0.012,0.0105,0.0105,0.0104,0.0091,0.0091,0.0091,0.0091,0.0009,0.0006,0.0002,-0.0018,0,0,-0.0008,-0.0009,0,0,0,0,0,0,0,0,0.0121,0.012,0.0123,0.0122,0.0121,0.0101,0.0074,0.0061,0.0091,0.0102,0.0091,0.0091,0.0034,0.0028,0.0024,-0.0022,-0.0026,-0.0008,-0.001,-0.0012,-0.0013,0,0,0,0,0,0,0,0.0122,0.0121,0.0121,0.0123,0.0121,0.0104,0.0103,0.0071,0.0067,0.0101,0.01,0.0097,0.0032,0.0027,0.0022,-0.0027,-0.0008,-0.0011,-0.0013,-0.0014,-0.009,-0.009,0,0,0,0,0,0,0.0128,0.0122,0.0122,0.012,0.0121,0.0104,0.0103,0.0107,0.0068,0.0063,0.0097,0.0096,0.0033,0.0025,0.0018,0.0007,-0.0012,-0.0015,-0.0017,-0.009,-0.009,-0.009,0,0,0,0,0,0,0.0128,0.0128,0.0123,0.012,0.0118,0.0105,0.0109,0.0107,0.0105,0.0066,0.006,0.0098,0.0032,0.0023,-0.0004,0.0003,-0.0016,-0.0019,-0.009,-0.009,-0.009,-0.0027,0,0,0,0,0,0,0.0128,0.0129,0.0134,0.0121,0.0119,0.0122,0.0109,0.0106,0.0103,0.0102,0.0064,0.0057,0.0032,0.0002,-0.0007,-0.0002,-0.0022,-0.009,-0.009,-0.009,-0.0029,-0.0025,-0.0021,0,0,0,0,0,0.0128,0.0141,0.0134,0.0134,0.0127,0.0122,0.012,0.0109,0.0103,0.0106,0.008,0.0058,-0.0005,-0.0001,-0.0011,-0.0007,-0.009,-0.009,-0.009,-0.0031,-0.0026,-0.0021,0,0,0,0,0,0,0.0144,0.014,0.0133,0.0144,0.0135,0.012,0.0123,0.0113,0.0096,0.0092,0.0057,0.0047,0.0025,-0.0002,0.0003,-0.003,-0.0051,-0.0053,-0.0003,0.0002,0.0006,0.0003,-0.0025,0,0,0,0,0,0.0149,0.0158,0.0147,0.0155,0.0152,0.0137,0.0133,0.0125,0.0108,0.0101,0.0077,0.0045,0.0016,0.0002,-0.0028,-0.0047,-0.0094,-0.0052,-0.0048,-0.0044,-0.0054,-0.0116,-0.0119,-0.009,-0.009,-0.009,0,0,0.0156,0.0156,0.0159,0.0158,0.0151,0.0152,0.0135,0.0134,0.0133,0.0092,0.0085,0.0056,0.0013,-0.0004,-0.0017,-0.0025,-0.0076,-0.0044,-0.0041,-0.0053,-0.0117,-0.0119,-0.0122,-0.009,-0.009,-0.009,0,0,0.0173,0.0175,0.0184,0.0183,0.0176,0.0166,0.0167,0.0154,0.0149,0.0135,0.0106,0.0079,0.0043,0.0014,-0.0006,-0.0003,-0.0054,-0.0008,0.0012,-0.0048,-0.0051,-0.0054,-0.0109,-0.0117,-0.0003,-0.0003,-0.0003,0,0.0183,0.0193,0.0186,0.0195,0.0198,0.0175,0.0184,0.0173,0.0153,0.0144,0.014,0.0076,0.0049,0.0012,0.0021,0.0005,-0.0036,0.0002,-0.0042,-0.0047,-0.0051,-0.0107,-0.0117,-0.0,-0.0001,-0.0001,-0.0001,0,0.02,0.0213,0.0221,0.0226,0.0226,0.0232,0.0217,0.0212,0.02,0.0183,0.0151,0.011,0.007,0.0063,0.0046,0.0005,-0.0017,-0.003,-0.0052,-0.005,-0.0109,-0.0121,0.0004,0.0003,0.0002,0.0001,0,0,0.0216,0.0232,0.0236,0.0251,0.0246,0.0253,0.0246,0.0234,0.0231,0.02,0.0182,0.014,0.0113,0.0086,0.0056,0.0012,-0.0042,-0.0013,-0.0018,-0.0063,-0.0175,-0.0152,-0.0163,-0.0062,-0.0064,-0.0066,-0.02,0,0.0233,0.0267,0.0264,0.0293,0.0309,0.0293,0.0296,0.028,0.0257,0.0233,0.0174,0.0148,0.0123,0.011,0.0057,-0.0018,-0.0073,-0.0005,-0.0175,-0.018,-0.0156,-0.0175,-0.0071,-0.021,-0.0213,-0.0215,-0.0216,0,0.0247,0.0273,0.031,0.034,0.0346,0.0357,0.0357,0.0361,0.0312,0.0291,0.0235,0.0184,0.0112,0.0094,-0.0054,-0.0009,-0.009,-0.0151,-0.0158,-0.017,-0.0179,-0.0216,-0.0239,-0.0237,-0.0235,-0.0234,-0.0232,0,0.0268,0.0304,0.0341,0.0352,0.0378,0.039,0.0402,0.0378,0.0397,0.0325,0.0318,0.0202,0.0162,0.0035,-0.0087,-0.0076,-0.0255,-0.026,-0.0325,-0.0324,-0.0333,-0.0328,-0.038,-0.038,-0.038,-0.0379,-0.0379,0,0.0291,0.0322,0.0359,0.0384,0.0436,0.0436,0.0478,0.0463,0.0452,0.0472,0.036,0.0337,0.0148,0.0029,-0.0097,-0.0245,-0.0271,-0.0335,-0.0361,-0.0301,-0.0292,-0.0341,-0.0335,-0.0384,-0.0383,-0.0382,-0.0381,0,0.0316,0.0332,0.039,0.0435,0.0452,0.0498,0.056,0.0592,0.0565,0.0579,0.0563,0.0431,0.027,0.0077,-0.0139,-0.0234,-0.0393,-0.0441,-0.0366,-0.0385,-0.0423,-0.0412,-0.0535,-0.0536,-0.0536,-0.0536,-0.0536,0,0.0335,0.0368,0.0443,0.0489,0.0516,0.0583,0.0635,0.0648,0.0685,0.0649,0.0658,0.0503,0.0392,0.01,-0.0113,-0.0389,-0.0412,-0.0501,-0.0464,-0.0428,-0.0442,-0.043,-0.0419,-0.0537,-0.0537,-0.0537,-0.0537,0,0.0389,0.0417,0.0468,0.0558,0.0627,0.0711,0.0778,0.0811,0.0825,0.0802,0.074,0.0572,0.038,0.0124,-0.01,-0.0288,-0.0449,-0.0505,-0.0505,-0.0471,-0.0431,-0.0442,-0.0431,-0.0538,-0.0538,-0.0538,-0.0538,0,0.0441,0.0482,0.0548,0.0627,0.0719,0.0804,0.0837,0.0875,0.0906,0.0858,0.0835,0.0616,0.0477,0.0176,-0.0022,-0.022,-0.0261,-0.0305,-0.0317,-0.0318,-0.0211,-0.0125,-0.0171,0,0,0,0,0,0.0489,0.0528,0.0608,0.0695,0.0791,0.0841,0.0919,0.0942,0.0945,0.0925,0.0884,0.0707,0.04,0.0254,0.0061,-0.0037,-0.0306,-0.0269,-0.0365,-0.0544,-0.0543,-0.0451,0,0,0,0,0,0,0.0516,0.0591,0.0612,0.0739,0.0804,0.0915,0.0968,0.0975,0.0956,0.0922,0.0758,0.0674,0.0364,0.0508,0.006,-0.0004,-0.0085,-0.0421,-0.0424,-0.0545,-0.0544,-0.0543,-0.0448,0,0,0,0,0]}]]